Regional Weather Roundup
Issued by NWS

Home | Current Version | Previous Version | Graphics & Text | Print | Product List | Glossary On
Versions: 1 2 3 4 5 6 7 8 9 10 11 12 13 14 15 16 17 18 19 20 21 22 23 24 25 26 27 28 29 30 31 32 33 34 35 36 37 38 39 40 41 42 43 44 45 46 47 48 49 50
000
ASUS43 KMKX 032221
RWRWI

WISCONSIN REGIONAL WEATHER ROUNDUP
NATIONAL WEATHER SERVICE MILWAUKEE/SULLIVAN WI
500 PM CDT THU SEP 03 2015

NOTE: "FAIR" INDICATES FEW OR NO CLOUDS BELOW 12,000 FEET WITH NO
SIGNIFICANT WEATHER AND/OR OBSTRUCTIONS TO VISIBILITY.

WIZ001-002-006>008-014>016-023>028-032300-
NORTHWEST WISCONSIN

CITY           SKY/WX    TMP DP  RH WIND       PRES   REMARKS
SUPERIOR ARPT  CLOUDY    60  59  96 NE10      29.97S FOG
ASHLAND        SUNNY     69  64  84 NE8       29.98S
HAYWARD        SUNNY     81  65  58 E5        29.95S HX  83
SIREN          SUNNY     83  65  56 E5        29.92F HX  84
CUMBERLAND     MOSUNNY   79  64  61 SE6       29.94S HX  81
RICE LAKE      MOSUNNY   82  67  61 E6        29.94S HX  84
CHETEK         MOSUNNY   82  69  64 MISG      29.93S HX  85
LADYSMITH      MOSUNNY   83  65  53 SE3       29.97S HX  84
EAU CLAIRE     SUNNY     82  68  62 E9        29.91S HX  85
MENOMONIE      SUNNY     83  68  60 E9        29.91S HX  86
NEW RICHMOND   SUNNY     82  68  62 E10       29.91S HX  84
OSCEOLA        SUNNY     82  68  61 E10       29.92F HX  85
$$

WIZ003>005-009-010-017-018-032300-
NORTH CENTRAL WISCONSIN

CITY           SKY/WX    TMP DP  RH WIND       PRES   REMARKS
MANITOWISH WTR MOSUNNY   78  64  62 E3        29.98F
ARBOR VITAE    SUNNY     80  64  57 SE9       29.98F HX  81
WOODRUFF       SUNNY     80  64  57 SE9       29.98F HX  81
RHINELANDER    PTSUNNY   77  64  64 E10       30.00R
EAGLE RIVER    CLOUDY    76  62  59 E6        29.99F
LAND O LAKES   SUNNY     79  62  57 E7        30.00F HX  80
PHILLIPS       MOSUNNY   79  65  62 E6        29.96S HX  81
TOMAHAWK       PTSUNNY   76  64  66 E5        29.98S
MEDFORD        PTSUNNY   74  65  73 SE3       29.98S
MERRILL        PTSUNNY   79  67  67 E5        29.97S HX  81
$$

WIZ029-030-035-036-043>047-032300-
CENTRAL WISCONSIN

CITY           SKY/WX    TMP DP  RH WIND       PRES   REMARKS
WAUSAU         PTSUNNY   77  65  66 E8        29.95S
MOSINEE        PTSUNNY   75  66  73 SE5       29.98R
MARSHFIELD     SUNNY     79  64  60 NE10      29.96S HX  81
STEVENS POINT  CLOUDY    73  65  75 NE9       29.97S
WAUPACA        CLOUDY    75  69  80 N5        29.96S
WAUTOMA        PTSUNNY   78  67  68 NE9       29.94S HX  80
WISC RAPIDS    MOSUNNY   80  65  59 E9        29.95S HX  82
CAMP DOUGLAS   SUNNY     83  74  73 VRB5      29.91F HX  90
$$

WIZ011>013-019>022-031-037>040-048>050-032300-
NORTHEAST WISCONSIN

CITY           SKY/WX    TMP DP  RH WIND       PRES   REMARKS
ANTIGO         MOSUNNY   74  65  73 E8        30.00R
SHAWANO        NOT AVBL
OCONTO         SUNNY     74  68  81 E6        29.93S
STURGEON BAY   SUNNY     72  63  73 N13       29.96R
GREEN BAY      MOSUNNY   78  67  68 N3        29.94S HX  80
MANITOWOC      CLOUDY    72  67  84 MISG      29.93S
APPLETON       PTSUNNY   73  63  68 N9        29.94S
CLINTONVILLE   PTSUNNY   75  63  64 N6        29.95S
OSHKOSH        CLOUDY    74  66  76 NE9       29.94S
$$

WIZ032>034-041-042-053>061-032300-
SOUTHWEST WISCONSIN

CITY           SKY/WX    TMP DP  RH WIND       PRES   REMARKS
LA CROSSE      MOSUNNY   89  73  59 E8        29.87S HX  97
SPARTA         SUNNY     86  67  52 E5        29.90F HX  89
VIROQUA          N/A     86  73  65 NE6       29.91S HX  92
BOSCOBEL       PTSUNNY   91  73  55 E6        29.87S HX  99
PRAIRIE DU CHI SUNNY     89  69  51 CALM      29.86S HX  94
PLATTEVILLE    MOSUNNY   88  72  59 CALM      29.90S HX  95
$$

WIZ056-057-062-063-064-067-068-032300-
SOUTH CENTRAL WISCONSIN

CITY           SKY/WX    TMP DP  RH WIND       PRES   REMARKS
REEDSBURG      SUNNY     84  72  67 NE6       29.90F HX  90
BARABOO/DELLS  SUNNY     84  67  56 NE3       29.91F HX  87
LONE ROCK      PTSUNNY   87  74  64 E5        29.88F HX  95
MINERAL POINT  MOSUNNY   90  70  51 SW3       29.91S HX  95
MADISON        PTSUNNY   84  73  69 NE13      29.90S HX  90
MIDDLETON      MOSUNNY  N/A N/A N/A NE7       29.91S
WATERTOWN      SUNNY     81  74  79 N10       29.90S HX  85
MONROE         MOSUNNY   88  72  58 W5        29.90F HX  94
JANESVILLE     PTSUNNY   88  72  58 W7        29.88F HX  94
$$

WIZ051-052-058>065-066-070>072-032300-
SOUTHEAST WISCONSIN

CITY           SKY/WX    TMP DP  RH WIND       PRES   REMARKS
MILWAUKEE      MOSUNNY   74  67  78 NE10      29.91R
WAUKESHA       MOSUNNY   81  70  69 NW9       29.92S HX  84
MILWAUKEE/TIMM PTSUNNY   79  66  65 NE6       29.91S HX  81
RACINE         SUNNY     76  67  73 NE12      29.92R
BURLINGTON     SUNNY     83  70  64 NW6       29.89S HX  87
KENOSHA        PTSUNNY   78  70  76 E12       29.90R HX  80
FOND DU LAC    PTSUNNY   76  67  73 NE8       29.94S
SHEBOYGAN      MOSUNNY   77  66  68 NW10      29.92F
WEST BEND      MOSUNNY   77  64  65 CALM      29.92F
JUNEAU         SUNNY     77  67  72 N10       29.94S
$$

LSZ147-162-032300-
LAKE SUPERIOR

STATION/POSITION TIME  TEMP    WIND        PRES    WAVE
                       AIR SEA DIR/SP/G            HT/PER
                 (UTC) (F)     (DEG/KT/KT) (MB)    (FT/S)
W MID LAKE BUOY  2150   59 57   30/  8/  8 1015.2F   0
DEVILS ISLAND    2200   59      70/  6/  7 1015.3F
PORT WING        2100   59      30/ 15/ 17 1014.9F
SAXON HARBOR     2100   63      40/  7/  9 1015.2R
$$

LMZ867-665-643>646-032300-
LAKE MICHIGAN

STATION/POSITION TIME  TEMP    WIND        PRES    WAVE
                       AIR SEA DIR/SP/G            HT/PER
                 (UTC) (F)     (DEG/KT/KT) (MB)    (FT/S)
CHAMBERS ISLAND  2100   69      30/  9/ 10 1013.5F
S GREEN BAY BUOY 2200   68 67   50/  8/ 10 1015.1R
N MID LAKE BUOY  2150   68 67  350/  6/  6 1013.1S   1/ 4
NORTHPORT PIER   2100   72     320/  3/  5 1013.9S
SISTER BAY       2111   73     350/ 13/ 15   N/A
ALGOMA LAKESHORE 2114           70/ 11/ 13   N/A
KEWAUNEE LAKESHO 2200   66      30/  4/  7 1012.6F
SHEBOYGAN LAKESH 2200   60      40/ 10/ 11 1013.4R
PORT WASHINGTON  2100          350/  7/ 13 1013.2F
ATWATER BUOY     2200   61     300/  4/  4 1014.5R
MILWAUKEE LAKESH 2210   66      30/  6/  7   N/A
S MID LAKE BUOY  2150   71 72   10/ 14/ 16 1011.8R
KENOSHA   LAKESH 2200           10/ 12/ 14 1012.2R
$$

TC  - TEMPERATURE IN CELSIUS
VSB - VISIBILITY IN STATUTE MILES
WCI - WIND CHILL INDEX
HX  - HEAT INDEX




USA.gov is the U.S. government's official web portal to all federal, state and local government web resources and services.